Time,TemperatureF,DewpointF,PressureIn,WindDirection,WindDirectionDegrees,WindSpeedMPH,WindSpeedGustMPH,Humidity,HourlyPrecipIn,Conditions,Clouds,dailyrainin,SoftwareType,DateUTC
2013-10-30 00:01:00,62.0,60.8,30.13,SSE,150,0.0,1.0,96,0.00,,,0.08,Wunderground v.1.15,2013-10-30 05:01:00,
2013-10-30 00:06:00,62.0,60.8,30.13,SE,136,2.0,3.0,96,0.00,,,0.00,Wunderground v.1.15,2013-10-30 05:06:00,
2013-10-30 00:11:00,62.0,60.8,30.13,SE,134,1.0,3.0,96,0.00,,,0.00,Wunderground v.1.15,2013-10-30 05:11:00,
2013-10-30 00:16:00,62.0,60.8,30.13,SE,146,0.0,3.0,96,0.00,,,0.00,Wunderground v.1.15,2013-10-30 05:16:00,
2013-10-30 00:21:00,62.0,60.8,30.12,WSW,239,1.0,2.0,96,0.00,,,0.00,Wunderground v.1.15,2013-10-30 05:21:00,
2013-10-30 00:26:00,61.9,61.0,30.12,SW,232,0.0,2.0,97,0.00,,,0.00,Wunderground v.1.15,2013-10-30 05:26:00,
2013-10-30 00:31:00,61.8,60.9,30.12,SSE,154,0.0,0.0,97,0.00,,,0.00,Wunderground v.1.15,2013-10-30 05:31:00,
2013-10-30 00:36:00,61.9,61.0,30.12,SW,229,0.0,1.0,97,0.00,,,0.01,Wunderground v.1.15,2013-10-30 05:36:00,
2013-10-30 00:41:00,61.9,61.0,30.12,SW,221,0.0,0.0,97,0.31,,,0.03,Wunderground v.1.15,2013-10-30 05:41:00,
2013-10-30 00:46:00,61.9,61.0,30.12,SSE,148,1.0,2.0,97,0.17,,,0.04,Wunderground v.1.15,2013-10-30 05:46:00,
2013-10-30 00:51:00,62.0,61.1,30.12,SE,132,1.0,1.0,97,0.07,,,0.04,Wunderground v.1.15,2013-10-30 05:51:00,
2013-10-30 00:56:00,62.0,61.1,30.12,SE,134,0.0,1.0,97,0.05,,,0.04,Wunderground v.1.15,2013-10-30 05:56:00,
2013-10-30 01:01:00,62.0,61.1,30.12,SE,134,0.0,1.0,97,0.00,,,0.04,Wunderground v.1.15,2013-10-30 06:01:00,
2013-10-30 01:06:00,62.0,61.1,30.13,SE,134,0.0,1.0,97,0.00,,,0.04,Wunderground v.1.15,2013-10-30 06:06:00,
2013-10-30 01:11:00,61.8,60.9,30.12,SE,134,0.0,0.0,97,0.00,,,0.04,Wunderground v.1.15,2013-10-30 06:11:00,
2013-10-30 01:16:00,61.8,60.9,30.12,SE,134,0.0,1.0,97,0.00,,,0.04,Wunderground v.1.15,2013-10-30 06:16:00,
2013-10-30 01:21:00,61.8,60.9,30.13,SE,134,0.0,0.0,97,0.00,,,0.04,Wunderground v.1.15,2013-10-30 06:21:00,
2013-10-30 01:26:00,61.7,60.8,30.12,SE,134,0.0,0.0,97,0.00,,,0.04,Wunderground v.1.15,2013-10-30 06:26:00,
2013-10-30 01:31:00,61.7,60.8,30.12,SE,133,0.0,0.0,97,0.00,,,0.04,Wunderground v.1.15,2013-10-30 06:31:00,
2013-10-30 01:36:00,61.7,61.1,30.12,SE,132,0.0,0.0,98,0.00,,,0.05,Wunderground v.1.15,2013-10-30 06:36:00,
2013-10-30 01:41:00,61.5,60.6,30.12,SE,132,0.0,0.0,97,0.00,,,0.05,Wunderground v.1.15,2013-10-30 06:41:00,
2013-10-30 01:46:00,61.4,60.5,30.12,SE,132,0.0,0.0,97,0.00,,,0.05,Wunderground v.1.15,2013-10-30 06:46:00,
2013-10-30 01:51:00,61.4,60.8,30.12,SE,132,0.0,0.0,98,0.00,,,0.05,Wunderground v.1.15,2013-10-30 06:51:00,
2013-10-30 01:56:00,61.4,60.8,30.12,SE,133,0.0,0.0,98,0.00,,,0.05,Wunderground v.1.15,2013-10-30 06:56:00,
2013-10-30 02:01:00,61.6,61.0,30.12,SE,134,0.0,0.0,98,0.00,,,0.05,Wunderground v.1.15,2013-10-30 07:01:00,
2013-10-30 02:06:00,61.6,61.0,30.12,SE,146,0.0,0.0,98,0.00,,,0.05,Wunderground v.1.15,2013-10-30 07:06:00,
2013-10-30 02:10:00,62.2,61.6,30.12,SW,229,0.0,1.0,98,0.00,,,0.05,Wunderground v.1.15,2013-10-30 07:10:00,
2013-10-30 02:15:00,62.5,61.9,30.12,SW,236,1.0,1.0,98,0.00,,,0.05,Wunderground v.1.15,2013-10-30 07:15:00,
2013-10-30 02:20:00,62.6,62.0,30.12,SW,229,0.0,1.0,98,0.00,,,0.05,Wunderground v.1.15,2013-10-30 07:20:00,
2013-10-30 02:25:00,62.6,62.0,30.12,SW,225,0.0,1.0,98,0.00,,,0.05,Wunderground v.1.15,2013-10-30 07:25:00,
2013-10-30 02:30:00,62.5,61.9,30.12,SW,225,0.0,0.0,98,0.00,,,0.05,Wunderground v.1.15,2013-10-30 07:30:00,
2013-10-30 02:35:00,62.7,62.1,30.12,WSW,245,0.0,1.0,98,0.00,,,0.05,Wunderground v.1.15,2013-10-30 07:35:00,
2013-10-30 02:40:00,62.7,62.1,30.11,WSW,245,0.0,0.0,98,0.00,,,0.05,Wunderground v.1.15,2013-10-30 07:40:00,
2013-10-30 02:45:00,62.7,62.1,30.11,SW,228,0.0,1.0,98,0.00,,,0.05,Wunderground v.1.15,2013-10-30 07:45:00,
2013-10-30 02:50:00,62.8,62.2,30.11,SW,231,0.0,0.0,98,0.00,,,0.05,Wunderground v.1.15,2013-10-30 07:50:00,
2013-10-30 02:55:00,62.8,62.2,30.11,SW,232,0.0,2.0,98,0.00,,,0.05,Wunderground v.1.15,2013-10-30 07:55:00,
2013-10-30 03:00:00,62.9,62.3,30.11,SSW,211,0.0,2.0,98,0.00,,,0.05,Wunderground v.1.15,2013-10-30 08:00:00,
2013-10-30 03:05:00,63.0,62.4,30.11,WSW,239,1.0,2.0,98,0.00,,,0.05,Wunderground v.1.15,2013-10-30 08:05:00,
2013-10-30 03:10:00,63.2,62.6,30.11,SW,236,2.0,2.0,98,0.00,,,0.05,Wunderground v.1.15,2013-10-30 08:10:00,
2013-10-30 03:15:00,63.3,62.4,30.12,SW,217,0.0,2.0,97,0.00,,,0.05,Wunderground v.1.15,2013-10-30 08:15:00,
2013-10-30 03:20:00,63.4,62.5,30.12,SW,221,0.0,0.0,97,0.00,,,0.05,Wunderground v.1.15,2013-10-30 08:20:00,
2013-10-30 03:25:00,63.5,62.6,30.12,WSW,239,0.0,2.0,97,0.00,,,0.05,Wunderground v.1.15,2013-10-30 08:25:00,
2013-10-30 03:30:00,63.6,62.4,30.11,SW,219,0.0,1.0,96,0.00,,,0.05,Wunderground v.1.15,2013-10-30 08:30:00,
2013-10-30 03:35:00,63.7,62.5,30.11,SSW,211,2.0,4.0,96,0.00,,,0.05,Wunderground v.1.15,2013-10-30 08:35:00,
2013-10-30 03:40:00,63.8,62.6,30.11,SSW,210,0.0,1.0,96,0.00,,,0.05,Wunderground v.1.15,2013-10-30 08:40:00,
2013-10-30 03:45:00,63.8,62.6,30.11,SW,227,0.0,2.0,96,0.00,,,0.05,Wunderground v.1.15,2013-10-30 08:45:00,
2013-10-30 03:50:00,63.8,62.3,30.11,SW,224,1.0,3.0,95,0.00,,,0.05,Wunderground v.1.15,2013-10-30 08:50:00,
2013-10-30 03:55:00,63.9,62.4,30.11,South,188,2.0,3.0,95,0.00,,,0.05,Wunderground v.1.15,2013-10-30 08:55:00,
2013-10-30 04:00:00,64.0,62.5,30.11,SW,222,1.0,3.0,95,0.00,,,0.05,Wunderground v.1.15,2013-10-30 09:00:00,
2013-10-30 04:05:00,64.1,62.6,30.12,SW,231,0.0,3.0,95,0.00,,,0.05,Wunderground v.1.15,2013-10-30 09:05:00,
2013-10-30 04:10:00,64.2,62.4,30.11,SSW,208,1.0,1.0,94,0.00,,,0.05,Wunderground v.1.15,2013-10-30 09:10:00,
2013-10-30 04:15:00,64.2,62.4,30.12,SSW,210,3.0,4.0,94,0.00,,,0.05,Wunderground v.1.15,2013-10-30 09:15:00,
2013-10-30 04:20:00,64.3,62.5,30.12,SW,222,2.0,2.0,94,0.00,,,0.05,Wunderground v.1.15,2013-10-30 09:20:00,
2013-10-30 04:25:00,64.3,62.5,30.12,SSW,194,3.0,4.0,94,0.00,,,0.05,Wunderground v.1.15,2013-10-30 09:25:00,
2013-10-30 04:30:00,64.3,62.5,30.12,SW,218,0.0,3.0,94,0.00,,,0.05,Wunderground v.1.15,2013-10-30 09:30:00,
2013-10-30 04:35:00,64.3,62.5,30.12,SW,229,0.0,3.0,94,0.00,,,0.05,Wunderground v.1.15,2013-10-30 09:35:00,
2013-10-30 04:40:00,64.5,62.4,30.12,SW,232,0.0,1.0,93,0.00,,,0.05,Wunderground v.1.15,2013-10-30 09:40:00,
2013-10-30 04:45:00,64.5,62.4,30.12,SW,228,3.0,5.0,93,0.00,,,0.05,Wunderground v.1.15,2013-10-30 09:45:00,
2013-10-30 04:50:00,64.6,62.5,30.12,SW,224,1.0,2.0,93,0.00,,,0.05,Wunderground v.1.15,2013-10-30 09:50:00,
2013-10-30 04:55:00,64.7,62.6,30.12,SSW,212,0.0,3.0,93,0.00,,,0.05,Wunderground v.1.15,2013-10-30 09:55:00,
2013-10-30 05:00:00,64.6,62.5,30.12,SW,228,1.0,2.0,93,0.00,,,0.05,Wunderground v.1.15,2013-10-30 10:00:00,
2013-10-30 05:05:00,64.7,62.6,30.12,WNW,287,1.0,4.0,93,0.00,,,0.05,Wunderground v.1.15,2013-10-30 10:05:00,
2013-10-30 05:10:00,64.7,62.6,30.12,WNW,291,1.0,1.0,93,0.00,,,0.05,Wunderground v.1.15,2013-10-30 10:10:00,
2013-10-30 05:15:00,64.8,62.4,30.13,SW,217,1.0,3.0,92,0.00,,,0.05,Wunderground v.1.15,2013-10-30 10:15:00,
2013-10-30 05:20:00,64.7,62.3,30.13,WSW,256,1.0,1.0,92,0.00,,,0.05,Wunderground v.1.15,2013-10-30 10:20:00,
2013-10-30 05:25:00,64.7,62.6,30.12,WSW,240,3.0,4.0,93,0.00,,,0.05,Wunderground v.1.15,2013-10-30 10:25:00,
2013-10-30 05:30:00,64.8,62.4,30.12,SW,229,1.0,2.0,92,0.00,,,0.05,Wunderground v.1.15,2013-10-30 10:30:00,
2013-10-30 05:35:00,64.8,62.4,30.12,SW,226,0.0,2.0,92,0.00,,,0.05,Wunderground v.1.15,2013-10-30 10:35:00,
2013-10-30 05:40:00,64.9,62.5,30.12,SSW,205,0.0,1.0,92,0.00,,,0.05,Wunderground v.1.15,2013-10-30 10:40:00,
2013-10-30 05:45:00,64.9,62.5,30.13,SW,228,1.0,5.0,92,0.00,,,0.05,Wunderground v.1.15,2013-10-30 10:45:00,
2013-10-30 05:50:00,64.9,62.5,30.13,WSW,240,0.0,1.0,92,0.00,,,0.05,Wunderground v.1.15,2013-10-30 10:50:00,
2013-10-30 05:55:00,64.9,62.5,30.13,WSW,239,1.0,3.0,92,0.00,,,0.05,Wunderground v.1.15,2013-10-30 10:55:00,
2013-10-30 06:00:00,65.0,62.6,30.13,West,271,1.0,2.0,92,0.00,,,0.05,Wunderground v.1.15,2013-10-30 11:00:00,
2013-10-30 06:05:00,65.0,62.6,30.13,WSW,250,2.0,5.0,92,0.00,,,0.05,Wunderground v.1.15,2013-10-30 11:05:00,
2013-10-30 06:10:00,65.1,62.7,30.13,West,278,0.0,3.0,92,0.00,,,0.05,Wunderground v.1.15,2013-10-30 11:10:00,
2013-10-30 06:15:00,65.3,62.6,30.13,SW,219,3.0,4.0,91,0.00,,,0.05,Wunderground v.1.15,2013-10-30 11:15:00,
2013-10-30 06:20:00,65.4,62.7,30.13,SW,217,4.0,7.0,91,0.00,,,0.05,Wunderground v.1.15,2013-10-30 11:20:00,
2013-10-30 06:25:00,65.6,62.9,30.13,WSW,239,2.0,7.0,91,0.00,,,0.05,Wunderground v.1.15,2013-10-30 11:25:00,
2013-10-30 06:30:00,65.7,62.7,30.13,West,278,3.0,5.0,90,0.00,,,0.05,Wunderground v.1.15,2013-10-30 11:30:00,
2013-10-30 06:35:00,65.8,62.8,30.13,WSW,256,1.0,5.0,90,0.00,,,0.05,Wunderground v.1.15,2013-10-30 11:35:00,
2013-10-30 06:40:00,65.7,62.7,30.13,West,278,2.0,3.0,90,0.00,,,0.05,Wunderground v.1.15,2013-10-30 11:40:00,
2013-10-30 06:45:00,65.7,62.7,30.13,WSW,249,2.0,5.0,90,0.00,,,0.05,Wunderground v.1.15,2013-10-30 11:45:00,
2013-10-30 06:50:00,65.7,62.7,30.13,WSW,238,2.0,4.0,90,0.00,,,0.05,Wunderground v.1.15,2013-10-30 11:50:00,
2013-10-30 06:55:00,65.7,62.7,30.13,SW,228,1.0,4.0,90,0.00,,,0.05,Wunderground v.1.15,2013-10-30 11:55:00,
2013-10-30 07:00:00,65.7,62.7,30.13,WSW,241,2.0,6.0,90,0.00,,,0.05,Wunderground v.1.15,2013-10-30 12:00:00,
2013-10-30 07:05:00,65.7,62.7,30.13,WSW,241,1.0,6.0,90,0.00,,,0.05,Wunderground v.1.15,2013-10-30 12:05:00,
2013-10-30 07:10:00,65.7,62.7,30.13,WSW,238,1.0,3.0,90,0.00,,,0.05,Wunderground v.1.15,2013-10-30 12:10:00,
2013-10-30 07:15:00,65.6,62.6,30.13,WSW,257,1.0,5.0,90,0.00,,,0.05,Wunderground v.1.15,2013-10-30 12:15:00,
2013-10-30 07:20:00,65.6,62.6,30.13,SSW,211,2.0,4.0,90,0.00,,,0.05,Wunderground v.1.15,2013-10-30 12:20:00,
2013-10-30 07:25:00,65.6,62.6,30.13,West,271,1.0,5.0,90,0.00,,,0.05,Wunderground v.1.15,2013-10-30 12:25:00,
2013-10-30 07:30:00,65.5,62.5,30.13,WSW,243,0.0,2.0,90,0.00,,,0.05,Wunderground v.1.15,2013-10-30 12:30:00,
2013-10-30 07:35:00,65.4,62.4,30.13,West,277,2.0,3.0,90,0.00,,,0.05,Wunderground v.1.15,2013-10-30 12:35:00,
2013-10-30 07:40:00,65.3,62.3,30.13,SW,228,1.0,2.0,90,0.00,,,0.05,Wunderground v.1.15,2013-10-30 12:40:00,
2013-10-30 07:45:00,65.3,62.3,30.13,SSW,210,1.0,8.0,90,0.00,,,0.05,Wunderground v.1.15,2013-10-30 12:45:00,
2013-10-30 07:50:00,65.2,62.2,30.13,WSW,239,1.0,3.0,90,0.00,,,0.05,Wunderground v.1.15,2013-10-30 12:50:00,
2013-10-30 07:55:00,65.1,62.4,30.14,West,281,3.0,5.0,91,0.00,,,0.05,Wunderground v.1.15,2013-10-30 12:55:00,
2013-10-30 08:00:00,65.2,62.2,30.14,WSW,252,1.0,3.0,90,0.00,,,0.05,Wunderground v.1.15,2013-10-30 13:00:00,
2013-10-30 08:05:00,65.3,62.3,30.13,SW,236,4.0,7.0,90,0.00,,,0.05,Wunderground v.1.15,2013-10-30 13:05:00,
2013-10-30 08:10:00,65.4,62.4,30.13,SW,232,2.0,3.0,90,0.00,,,0.05,Wunderground v.1.15,2013-10-30 13:10:00,
2013-10-30 08:15:00,65.6,62.6,30.13,WSW,238,0.0,4.0,90,0.00,,,0.05,Wunderground v.1.15,2013-10-30 13:15:00,
2013-10-30 08:20:00,65.8,62.8,30.13,SSE,152,0.0,2.0,90,0.00,,,0.05,Wunderground v.1.15,2013-10-30 13:20:00,
2013-10-30 08:25:00,65.9,62.6,30.13,WSW,243,3.0,4.0,89,0.00,,,0.05,Wunderground v.1.15,2013-10-30 13:25:00,
2013-10-30 08:30:00,66.0,62.7,30.14,SW,229,2.0,3.0,89,0.00,,,0.05,Wunderground v.1.15,2013-10-30 13:30:00,
2013-10-30 08:35:00,66.1,62.8,30.14,WSW,238,4.0,6.0,89,0.00,,,0.05,Wunderground v.1.15,2013-10-30 13:35:00,
2013-10-30 08:40:00,66.1,62.8,30.14,SE,136,1.0,3.0,89,0.00,,,0.05,Wunderground v.1.15,2013-10-30 13:40:00,
2013-10-30 08:45:00,66.1,62.8,30.14,SSW,201,0.0,5.0,89,0.00,,,0.05,Wunderground v.1.15,2013-10-30 13:45:00,
2013-10-30 08:50:00,66.2,62.9,30.14,WSW,242,3.0,5.0,89,0.00,,,0.05,Wunderground v.1.15,2013-10-30 13:50:00,
2013-10-30 08:55:00,66.4,63.1,30.13,SW,228,2.0,6.0,89,0.00,,,0.05,Wunderground v.1.15,2013-10-30 13:55:00,
2013-10-30 09:00:00,66.7,63.0,30.13,WSW,238,3.0,3.0,88,0.00,,,0.05,Wunderground v.1.15,2013-10-30 14:00:00,
2013-10-30 09:05:00,67.2,63.2,30.13,SW,233,3.0,6.0,87,0.00,,,0.05,Wunderground v.1.15,2013-10-30 14:05:00,
2013-10-30 09:10:00,67.6,63.3,30.13,WSW,243,2.0,3.0,86,0.00,,,0.05,Wunderground v.1.15,2013-10-30 14:10:00,
2013-10-30 09:15:00,68.0,63.7,30.13,WSW,242,2.0,6.0,86,0.00,,,0.05,Wunderground v.1.15,2013-10-30 14:15:00,
2013-10-30 09:20:00,68.4,63.7,30.13,SW,219,5.0,5.0,85,0.00,,,0.05,Wunderground v.1.15,2013-10-30 14:20:00,
2013-10-30 09:25:00,68.8,64.1,30.13,SW,236,1.0,5.0,85,0.00,,,0.05,Wunderground v.1.15,2013-10-30 14:25:00,
2013-10-30 09:30:00,69.0,64.0,30.13,WSW,240,6.0,6.0,84,0.00,,,0.05,Wunderground v.1.15,2013-10-30 14:30:00,
2013-10-30 09:35:00,69.4,64.0,30.13,West,267,3.0,9.0,83,0.00,,,0.05,Wunderground v.1.15,2013-10-30 14:35:00,
2013-10-30 09:40:00,69.7,64.3,30.14,WSW,257,5.0,9.0,83,0.00,,,0.05,Wunderground v.1.15,2013-10-30 14:40:00,
2013-10-30 09:45:00,69.8,64.1,30.13,WSW,252,6.0,15.0,82,0.00,,,0.05,Wunderground v.1.15,2013-10-30 14:45:00,
2013-10-30 09:50:00,70.0,64.2,30.13,SW,224,4.0,5.0,82,0.00,,,0.05,Wunderground v.1.15,2013-10-30 14:50:00,
2013-10-30 09:55:00,70.0,64.2,30.13,South,176,0.0,8.0,82,0.00,,,0.05,Wunderground v.1.15,2013-10-30 14:55:00,
2013-10-30 10:00:00,70.4,64.6,30.13,WSW,257,4.0,7.0,82,0.00,,,0.05,Wunderground v.1.15,2013-10-30 15:00:00,
2013-10-30 10:05:00,70.5,64.4,30.13,WNW,284,2.0,8.0,81,0.00,,,0.05,Wunderground v.1.15,2013-10-30 15:05:00,
2013-10-30 10:10:00,70.5,64.4,30.13,West,266,0.0,4.0,81,0.00,,,0.05,Wunderground v.1.15,2013-10-30 15:10:00,
2013-10-30 10:15:00,70.5,64.4,30.13,SSW,201,2.0,5.0,81,0.00,,,0.05,Wunderground v.1.15,2013-10-30 15:15:00,
2013-10-30 10:20:00,70.4,64.6,30.12,WNW,297,3.0,3.0,82,0.00,,,0.05,Wunderground v.1.15,2013-10-30 15:20:00,
2013-10-30 10:25:00,70.6,64.5,30.12,WSW,249,4.0,7.0,81,0.00,,,0.05,Wunderground v.1.15,2013-10-30 15:25:00,
2013-10-30 10:30:00,70.9,64.4,30.12,SSW,201,4.0,9.0,80,0.00,,,0.05,Wunderground v.1.15,2013-10-30 15:30:00,
2013-10-30 10:35:00,71.4,64.9,30.12,WSW,243,3.0,9.0,80,0.00,,,0.05,Wunderground v.1.15,2013-10-30 15:35:00,
2013-10-30 10:40:00,71.5,64.6,30.12,WSW,244,6.0,8.0,79,0.00,,,0.05,Wunderground v.1.15,2013-10-30 15:40:00,
2013-10-30 10:45:00,71.6,65.1,30.11,West,263,2.0,8.0,80,0.00,,,0.05,Wunderground v.1.15,2013-10-30 15:45:00,
2013-10-30 10:50:00,71.7,64.8,30.11,West,264,2.0,4.0,79,0.00,,,0.05,Wunderground v.1.15,2013-10-30 15:50:00,
2013-10-30 10:55:00,72.0,65.1,30.11,SW,219,4.0,5.0,79,0.00,,,0.05,Wunderground v.1.15,2013-10-30 15:55:00,
2013-10-30 11:00:00,72.1,65.2,30.10,WNW,293,4.0,5.0,79,0.00,,,0.05,Wunderground v.1.15,2013-10-30 16:00:00,
2013-10-30 11:05:00,72.5,65.2,30.10,NW,314,4.0,8.0,78,0.00,,,0.05,Wunderground v.1.15,2013-10-30 16:05:00,
2013-10-30 11:10:00,73.1,65.5,30.10,West,274,4.0,4.0,77,0.00,,,0.05,Wunderground v.1.15,2013-10-30 16:10:00,
2013-10-30 11:15:00,73.4,65.4,30.10,WSW,248,3.0,11.0,76,0.00,,,0.05,Wunderground v.1.15,2013-10-30 16:15:00,
2013-10-30 11:20:00,73.9,65.5,30.10,WSW,245,3.0,5.0,75,0.00,,,0.05,Wunderground v.1.15,2013-10-30 16:20:00,
2013-10-30 11:25:00,74.2,65.4,30.10,WSW,248,3.0,6.0,74,0.00,,,0.05,Wunderground v.1.15,2013-10-30 16:25:00,
2013-10-30 11:30:00,74.4,66.0,30.10,WSW,239,4.0,4.0,75,0.00,,,0.05,Wunderground v.1.15,2013-10-30 16:30:00,
2013-10-30 11:35:00,74.8,66.0,30.10,SW,232,5.0,10.0,74,0.00,,,0.05,Wunderground v.1.15,2013-10-30 16:35:00,
2013-10-30 11:40:00,74.9,66.1,30.10,West,274,2.0,5.0,74,0.00,,,0.05,Wunderground v.1.15,2013-10-30 16:40:00,
2013-10-30 11:45:00,75.1,65.9,30.10,WNW,289,3.0,9.0,73,0.00,,,0.05,Wunderground v.1.15,2013-10-30 16:45:00,
2013-10-30 11:50:00,75.4,65.7,30.09,SSW,193,4.0,6.0,72,0.00,,,0.05,Wunderground v.1.15,2013-10-30 16:50:00,
2013-10-30 11:55:00,75.2,65.6,30.09,SW,226,6.0,15.0,72,0.00,,,0.05,Wunderground v.1.15,2013-10-30 16:55:00,
2013-10-30 12:00:00,75.4,65.7,30.10,WNW,295,7.0,8.0,72,0.00,,,0.05,Wunderground v.1.15,2013-10-30 17:00:00,
2013-10-30 12:05:00,75.2,65.9,30.09,West,274,9.0,9.0,73,0.00,,,0.05,Wunderground v.1.15,2013-10-30 17:05:00,
2013-10-30 12:10:00,75.3,66.0,30.09,West,270,4.0,6.0,73,0.00,,,0.05,Wunderground v.1.15,2013-10-30 17:10:00,
2013-10-30 12:15:00,75.7,66.4,30.09,West,269,3.0,9.0,73,0.00,,,0.05,Wunderground v.1.15,2013-10-30 17:15:00,
2013-10-30 12:20:00,75.5,65.8,30.09,WSW,246,5.0,5.0,72,0.00,,,0.05,Wunderground v.1.15,2013-10-30 17:20:00,
2013-10-30 12:25:00,75.3,65.6,30.08,WNW,297,7.0,13.0,72,0.00,,,0.05,Wunderground v.1.15,2013-10-30 17:25:00,
2013-10-30 12:30:00,75.8,66.5,30.08,WSW,253,5.0,6.0,73,0.00,,,0.05,Wunderground v.1.15,2013-10-30 17:30:00,
2013-10-30 12:35:00,76.2,66.1,30.08,WSW,254,6.0,10.0,71,0.00,,,0.05,Wunderground v.1.15,2013-10-30 17:35:00,
2013-10-30 12:39:00,76.3,66.2,30.08,WSW,257,4.0,5.0,71,0.00,,,0.05,Wunderground v.1.15,2013-10-30 17:39:00,
2013-10-30 12:45:00,76.4,66.7,30.08,WNW,284,3.0,7.0,72,0.00,,,0.05,Wunderground v.1.15,2013-10-30 17:45:00,
2013-10-30 12:49:00,76.2,66.5,30.07,South,170,4.0,4.0,72,0.00,,,0.05,Wunderground v.1.15,2013-10-30 17:49:00,
2013-10-30 12:55:00,76.0,65.9,30.08,West,277,5.0,15.0,71,0.00,,,0.05,Wunderground v.1.15,2013-10-30 17:55:00,
2013-10-30 12:59:00,75.7,66.0,30.07,SW,235,4.0,5.0,72,0.00,,,0.05,Wunderground v.1.15,2013-10-30 17:59:00,
2013-10-30 13:04:00,75.8,66.5,30.07,West,263,4.0,10.0,73,0.00,,,0.05,Wunderground v.1.15,2013-10-30 18:04:00,
2013-10-30 13:09:00,76.0,66.3,30.07,SSW,209,3.0,4.0,72,0.00,,,0.05,Wunderground v.1.15,2013-10-30 18:09:00,
2013-10-30 13:14:00,76.0,65.9,30.06,WSW,252,4.0,10.0,71,0.00,,,0.05,Wunderground v.1.15,2013-10-30 18:14:00,
2013-10-30 13:19:00,76.2,66.1,30.06,WNW,287,5.0,5.0,71,0.00,,,0.05,Wunderground v.1.15,2013-10-30 18:19:00,
2013-10-30 13:24:00,76.2,66.1,30.06,WNW,300,5.0,9.0,71,0.00,,,0.05,Wunderground v.1.15,2013-10-30 18:24:00,
2013-10-30 13:29:00,76.2,66.1,30.06,WSW,239,2.0,5.0,71,0.00,,,0.05,Wunderground v.1.15,2013-10-30 18:29:00,
2013-10-30 13:34:00,76.6,66.1,30.06,WSW,253,3.0,16.0,70,0.00,,,0.05,Wunderground v.1.15,2013-10-30 18:34:00,
2013-10-30 13:39:00,76.6,65.7,30.05,SE,146,8.0,16.0,69,0.00,,,0.05,Wunderground v.1.15,2013-10-30 18:39:00,
2013-10-30 13:44:00,76.2,65.7,30.05,SSW,213,3.0,9.0,70,0.00,,,0.05,Wunderground v.1.15,2013-10-30 18:44:00,
2013-10-30 13:49:00,76.0,65.9,30.04,SSW,210,3.0,12.0,71,0.00,,,0.05,Wunderground v.1.15,2013-10-30 18:49:00,
2013-10-30 13:54:00,75.9,65.8,30.04,West,273,2.0,11.0,71,0.00,,,0.05,Wunderground v.1.15,2013-10-30 18:54:00,
2013-10-30 13:59:00,75.9,65.8,30.04,SSE,149,4.0,11.0,71,0.00,,,0.05,Wunderground v.1.15,2013-10-30 18:59:00,
2013-10-30 14:04:00,75.8,65.7,30.04,West,267,4.0,9.0,71,0.00,,,0.05,Wunderground v.1.15,2013-10-30 19:04:00,
2013-10-30 14:09:00,75.5,65.8,30.04,WSW,238,4.0,10.0,72,0.00,,,0.05,Wunderground v.1.15,2013-10-30 19:09:00,
2013-10-30 14:14:00,75.5,66.2,30.03,SW,224,3.0,10.0,73,0.00,,,0.05,Wunderground v.1.15,2013-10-30 19:14:00,
2013-10-30 14:19:00,75.3,65.6,30.04,West,266,2.0,13.0,72,0.00,,,0.05,Wunderground v.1.15,2013-10-30 19:19:00,
2013-10-30 14:24:00,75.2,65.9,30.03,SSW,195,1.0,12.0,73,0.00,,,0.05,Wunderground v.1.15,2013-10-30 19:24:00,
2013-10-30 14:29:00,75.3,66.0,30.03,SW,232,4.0,12.0,73,0.00,,,0.05,Wunderground v.1.15,2013-10-30 19:29:00,
2013-10-30 14:34:00,75.6,66.3,30.03,NE,50,5.0,10.0,73,0.00,,,0.05,Wunderground v.1.15,2013-10-30 19:34:00,
2013-10-30 14:39:00,76.2,66.5,30.03,SW,222,4.0,10.0,72,0.00,,,0.05,Wunderground v.1.15,2013-10-30 19:39:00,
2013-10-30 14:44:00,76.4,65.9,30.02,West,259,9.0,14.0,70,0.00,,,0.05,Wunderground v.1.15,2013-10-30 19:44:00,
2013-10-30 14:49:00,76.7,66.6,30.02,SSW,210,5.0,14.0,71,0.00,,,0.05,Wunderground v.1.15,2013-10-30 19:49:00,
2013-10-30 14:54:00,76.8,65.9,30.02,WSW,245,7.0,12.0,69,0.00,,,0.05,Wunderground v.1.15,2013-10-30 19:54:00,
2013-10-30 14:59:00,76.3,66.2,30.02,SSE,165,2.0,12.0,71,0.00,,,0.05,Wunderground v.1.15,2013-10-30 19:59:00,
2013-10-30 15:04:00,75.8,65.7,30.02,SW,231,3.0,11.0,71,0.00,,,0.05,Wunderground v.1.15,2013-10-30 20:04:00,
2013-10-30 15:09:00,75.7,65.6,30.02,WSW,245,4.0,11.0,71,0.00,,,0.05,Wunderground v.1.15,2013-10-30 20:09:00,
2013-10-30 15:14:00,76.0,65.5,30.02,SW,226,7.0,12.0,70,0.00,,,0.05,Wunderground v.1.15,2013-10-30 20:14:00,
2013-10-30 15:19:00,76.0,65.9,30.02,SW,235,4.0,12.0,71,0.00,,,0.05,Wunderground v.1.15,2013-10-30 20:19:00,
2013-10-30 15:24:00,75.9,65.8,30.02,West,280,4.0,10.0,71,0.00,,,0.05,Wunderground v.1.15,2013-10-30 20:24:00,
2013-10-30 15:29:00,75.8,65.7,30.02,South,174,2.0,12.0,71,0.00,,,0.05,Wunderground v.1.15,2013-10-30 20:29:00,
2013-10-30 15:34:00,75.6,65.5,30.01,SSW,201,6.0,10.0,71,0.00,,,0.05,Wunderground v.1.15,2013-10-30 20:34:00,
2013-10-30 15:39:00,75.5,65.4,30.01,West,273,6.0,11.0,71,0.00,,,0.05,Wunderground v.1.15,2013-10-30 20:39:00,
2013-10-30 15:44:00,75.5,65.4,30.01,SW,226,7.0,8.0,71,0.00,,,0.05,Wunderground v.1.15,2013-10-30 20:44:00,
2013-10-30 15:49:00,75.4,65.7,30.01,SSE,168,3.0,9.0,72,0.00,,,0.05,Wunderground v.1.15,2013-10-30 20:49:00,
2013-10-30 15:54:00,75.2,65.9,30.01,SW,229,2.0,6.0,73,0.00,,,0.05,Wunderground v.1.15,2013-10-30 20:54:00,
2013-10-30 15:59:00,75.1,65.5,30.01,WSW,240,1.0,10.0,72,0.00,,,0.05,Wunderground v.1.15,2013-10-30 20:59:00,
2013-10-30 16:04:00,74.9,65.7,30.01,SW,221,4.0,7.0,73,0.00,,,0.05,Wunderground v.1.15,2013-10-30 21:04:00,
2013-10-30 16:09:00,74.8,65.2,30.01,SW,224,3.0,11.0,72,0.00,,,0.05,Wunderground v.1.15,2013-10-30 21:09:00,
2013-10-30 16:14:00,74.7,65.1,30.02,South,174,1.0,7.0,72,0.00,,,0.05,Wunderground v.1.15,2013-10-30 21:14:00,
2013-10-30 16:19:00,74.5,65.3,30.01,SSW,211,1.0,7.0,73,0.00,,,0.05,Wunderground v.1.15,2013-10-30 21:19:00,
2013-10-30 16:24:00,74.3,65.1,30.01,WSW,240,2.0,9.0,73,0.00,,,0.05,Wunderground v.1.15,2013-10-30 21:24:00,
2013-10-30 16:29:00,74.2,65.0,30.01,SSW,211,2.0,9.0,73,0.00,,,0.05,Wunderground v.1.15,2013-10-30 21:29:00,
2013-10-30 16:34:00,73.9,65.1,30.01,SW,214,2.0,7.0,74,0.00,,,0.05,Wunderground v.1.15,2013-10-30 21:34:00,
2013-10-30 16:39:00,73.7,65.3,30.01,SSW,208,2.0,7.0,75,0.00,,,0.05,Wunderground v.1.15,2013-10-30 21:39:00,
2013-10-30 16:44:00,73.6,65.2,30.01,SW,229,3.0,4.0,75,0.00,,,0.05,Wunderground v.1.15,2013-10-30 21:44:00,
2013-10-30 16:49:00,73.4,65.0,30.02,South,183,1.0,8.0,75,0.00,,,0.05,Wunderground v.1.15,2013-10-30 21:49:00,
2013-10-30 16:54:00,73.3,64.9,30.02,SW,229,3.0,6.0,75,0.00,,,0.05,Wunderground v.1.15,2013-10-30 21:54:00,
2013-10-30 16:59:00,73.1,64.7,30.01,SW,235,3.0,12.0,75,0.00,,,0.05,Wunderground v.1.15,2013-10-30 21:59:00,
2013-10-30 17:04:00,73.1,64.7,30.01,South,179,6.0,10.0,75,0.00,,,0.05,Wunderground v.1.15,2013-10-30 22:04:00,
2013-10-30 17:09:00,72.9,64.5,30.01,SW,221,5.0,10.0,75,0.00,,,0.05,Wunderground v.1.15,2013-10-30 22:09:00,
2013-10-30 17:14:00,72.8,64.4,30.01,SE,145,1.0,8.0,75,0.00,,,0.05,Wunderground v.1.15,2013-10-30 22:14:00,
2013-10-30 17:19:00,72.5,64.5,30.01,SW,236,1.0,8.0,76,0.00,,,0.05,Wunderground v.1.15,2013-10-30 22:19:00,
2013-10-30 17:24:00,72.3,63.9,30.01,SSW,203,1.0,7.0,75,0.00,,,0.05,Wunderground v.1.15,2013-10-30 22:24:00,
2013-10-30 17:29:00,72.1,63.7,30.01,SSW,212,2.0,7.0,75,0.00,,,0.05,Wunderground v.1.15,2013-10-30 22:29:00,
2013-10-30 17:34:00,71.8,63.4,30.01,South,169,4.0,5.0,75,0.00,,,0.05,Wunderground v.1.15,2013-10-30 22:34:00,
2013-10-30 17:39:00,71.7,63.7,30.01,WSW,238,1.0,8.0,76,0.00,,,0.05,Wunderground v.1.15,2013-10-30 22:39:00,
2013-10-30 17:44:00,71.4,63.4,30.01,WSW,246,3.0,5.0,76,0.00,,,0.05,Wunderground v.1.15,2013-10-30 22:44:00,
2013-10-30 17:49:00,71.3,63.3,30.01,SW,219,2.0,8.0,76,0.00,,,0.05,Wunderground v.1.15,2013-10-30 22:49:00,
2013-10-30 17:54:00,71.0,63.4,30.01,SSW,208,1.0,4.0,77,0.00,,,0.05,Wunderground v.1.15,2013-10-30 22:54:00,
2013-10-30 17:59:00,70.7,63.1,30.01,SW,229,0.0,4.0,77,0.00,,,0.05,Wunderground v.1.15,2013-10-30 22:59:00,
2013-10-30 18:04:00,70.5,63.3,30.00,SW,215,1.0,2.0,78,0.00,,,0.05,Wunderground v.1.15,2013-10-30 23:04:00,
2013-10-30 18:09:00,70.2,63.0,30.00,SSW,192,0.0,2.0,78,0.00,,,0.05,Wunderground v.1.15,2013-10-30 23:09:00,
2013-10-30 18:14:00,69.9,63.1,30.00,SSE,160,1.0,2.0,79,0.00,,,0.05,Wunderground v.1.15,2013-10-30 23:14:00,
2013-10-30 18:19:00,69.7,63.3,30.00,South,173,0.0,4.0,80,0.00,,,0.05,Wunderground v.1.15,2013-10-30 23:19:00,
2013-10-30 18:24:00,69.6,63.2,30.00,SE,146,0.0,2.0,80,0.00,,,0.05,Wunderground v.1.15,2013-10-30 23:24:00,
2013-10-30 18:29:00,69.4,63.3,29.99,SSE,147,0.0,2.0,81,0.00,,,0.05,Wunderground v.1.15,2013-10-30 23:29:00,
2013-10-30 18:34:00,69.3,63.2,30.00,South,173,0.0,2.0,81,0.00,,,0.05,Wunderground v.1.15,2013-10-30 23:34:00,
2013-10-30 18:39:00,69.1,63.0,30.00,SSE,151,1.0,2.0,81,0.00,,,0.05,Wunderground v.1.15,2013-10-30 23:39:00,
2013-10-30 18:44:00,68.9,63.2,30.00,SE,146,1.0,3.0,82,0.00,,,0.05,Wunderground v.1.15,2013-10-30 23:44:00,
2013-10-30 18:49:00,68.8,63.1,29.99,SE,134,1.0,3.0,82,0.00,,,0.05,Wunderground v.1.15,2013-10-30 23:49:00,
2013-10-30 18:54:00,68.7,63.0,30.00,SE,139,0.0,3.0,82,0.00,,,0.05,Wunderground v.1.15,2013-10-30 23:54:00,
2013-10-30 18:59:00,68.5,63.1,30.00,SE,132,1.0,3.0,83,0.00,,,0.05,Wunderground v.1.15,2013-10-30 23:59:00,
2013-10-30 19:04:00,68.4,63.0,30.00,SSE,152,0.0,2.0,83,0.00,,,0.05,Wunderground v.1.15,2013-10-31 00:04:00,
2013-10-30 19:09:00,68.3,62.9,30.00,SSE,153,0.0,2.0,83,0.00,,,0.05,Wunderground v.1.15,2013-10-31 00:09:00,
2013-10-30 19:14:00,68.2,63.2,30.00,SE,146,1.0,2.0,84,0.00,,,0.05,Wunderground v.1.15,2013-10-31 00:14:00,
2013-10-30 19:19:00,68.1,63.1,30.00,SSE,148,0.0,2.0,84,0.00,,,0.05,Wunderground v.1.15,2013-10-31 00:19:00,
2013-10-30 19:24:00,67.9,62.9,30.00,SE,129,0.0,1.0,84,0.00,,,0.05,Wunderground v.1.15,2013-10-31 00:24:00,
2013-10-30 19:29:00,67.7,63.0,30.01,SE,129,0.0,1.0,85,0.00,,,0.05,Wunderground v.1.15,2013-10-31 00:29:00,
2013-10-30 19:34:00,67.4,62.7,30.00,SE,129,0.0,0.0,85,0.00,,,0.05,Wunderground v.1.15,2013-10-31 00:34:00,
2013-10-30 19:39:00,67.1,62.8,30.00,SE,131,0.0,1.0,86,0.00,,,0.05,Wunderground v.1.15,2013-10-31 00:39:00,
2013-10-30 19:44:00,67.1,62.8,30.00,SE,139,0.0,2.0,86,0.00,,,0.05,Wunderground v.1.15,2013-10-31 00:44:00,
2013-10-30 19:49:00,67.2,62.9,30.00,SSE,155,0.0,2.0,86,0.00,,,0.05,Wunderground v.1.15,2013-10-31 00:49:00,
2013-10-30 19:54:00,67.4,63.1,30.00,SSE,148,1.0,3.0,86,0.00,,,0.05,Wunderground v.1.15,2013-10-31 00:54:00,
2013-10-30 19:59:00,67.5,63.2,30.00,SE,146,3.0,3.0,86,0.00,,,0.05,Wunderground v.1.15,2013-10-31 00:59:00,
2013-10-30 20:04:00,67.4,63.1,29.99,SSE,149,0.0,4.0,86,0.00,,,0.05,Wunderground v.1.15,2013-10-31 01:04:00,
2013-10-30 20:09:00,67.4,63.1,29.99,SE,143,1.0,4.0,86,0.00,,,0.05,Wunderground v.1.15,2013-10-31 01:09:00,
2013-10-30 20:14:00,67.3,63.0,29.99,SE,146,0.0,1.0,86,0.00,,,0.05,Wunderground v.1.15,2013-10-31 01:14:00,
2013-10-30 20:19:00,67.2,62.9,29.99,SSE,155,2.0,3.0,86,0.00,,,0.05,Wunderground v.1.15,2013-10-31 01:19:00,
2013-10-30 20:24:00,67.2,62.9,29.99,South,189,1.0,2.0,86,0.00,,,0.05,Wunderground v.1.15,2013-10-31 01:24:00,
2013-10-30 20:29:00,67.1,63.1,29.99,ESE,119,1.0,3.0,87,0.00,,,0.05,Wunderground v.1.15,2013-10-31 01:29:00,
2013-10-30 20:34:00,67.1,63.1,29.99,SSE,155,1.0,3.0,87,0.00,,,0.05,Wunderground v.1.15,2013-10-31 01:34:00,
2013-10-30 20:39:00,67.0,63.0,29.99,SSE,156,0.0,3.0,87,0.00,,,0.05,Wunderground v.1.15,2013-10-31 01:39:00,
2013-10-30 20:44:00,66.9,62.9,29.99,SSE,163,0.0,1.0,87,0.00,,,0.05,Wunderground v.1.15,2013-10-31 01:44:00,
2013-10-30 20:49:00,66.8,62.8,29.99,SE,141,0.0,5.0,87,0.00,,,0.05,Wunderground v.1.15,2013-10-31 01:49:00,
2013-10-30 20:54:00,66.7,63.0,29.99,SW,222,0.0,2.0,88,0.00,,,0.05,Wunderground v.1.15,2013-10-31 01:54:00,
2013-10-30 20:59:00,66.6,62.9,29.99,SE,129,0.0,2.0,88,0.00,,,0.05,Wunderground v.1.15,2013-10-31 01:59:00,
2013-10-30 21:04:00,66.4,62.7,29.99,SSE,156,0.0,2.0,88,0.00,,,0.05,Wunderground v.1.15,2013-10-31 02:04:00,
2013-10-30 21:09:00,66.3,63.0,29.99,SSE,156,0.0,2.0,89,0.00,,,0.05,Wunderground v.1.15,2013-10-31 02:09:00,
2013-10-30 21:14:00,66.3,63.0,29.99,SW,221,0.0,3.0,89,0.00,,,0.05,Wunderground v.1.15,2013-10-31 02:14:00,
2013-10-30 21:19:00,66.3,63.0,29.99,South,186,0.0,3.0,89,0.00,,,0.05,Wunderground v.1.15,2013-10-31 02:19:00,
2013-10-30 21:24:00,66.3,63.0,30.00,SSE,153,3.0,3.0,89,0.00,,,0.05,Wunderground v.1.15,2013-10-31 02:24:00,
2013-10-30 21:29:00,66.4,63.1,30.00,SSE,149,0.0,3.0,89,0.00,,,0.05,Wunderground v.1.15,2013-10-31 02:29:00,
2013-10-30 21:33:00,66.6,62.9,29.99,WSW,243,3.0,3.0,88,0.00,,,0.05,Wunderground v.1.15,2013-10-31 02:33:00,
2013-10-30 21:38:00,66.7,63.0,29.99,South,180,0.0,3.0,88,0.00,,,0.05,Wunderground v.1.15,2013-10-31 02:38:00,
2013-10-30 21:43:00,66.8,62.8,29.99,WSW,238,0.0,4.0,87,0.00,,,0.05,Wunderground v.1.15,2013-10-31 02:43:00,
2013-10-30 21:48:00,66.9,62.9,29.99,SW,219,1.0,4.0,87,0.00,,,0.05,Wunderground v.1.15,2013-10-31 02:48:00,
2013-10-30 21:53:00,67.2,62.9,29.99,SSW,194,2.0,7.0,86,0.00,,,0.05,Wunderground v.1.15,2013-10-31 02:53:00,
2013-10-30 21:58:00,67.5,62.8,30.00,West,260,1.0,7.0,85,0.00,,,0.05,Wunderground v.1.15,2013-10-31 02:58:00,
2013-10-30 22:00:00,67.5,62.8,30.00,WSW,238,0.0,2.0,85,0.00,,,0.05,Wunderground v.1.15,2013-10-31 03:00:00,
2013-10-30 22:05:00,67.7,62.7,29.99,SW,219,2.0,6.0,84,0.00,,,0.05,Wunderground v.1.15,2013-10-31 03:05:00,
2013-10-30 22:10:00,67.8,62.8,29.99,SSW,195,3.0,4.0,84,0.00,,,0.05,Wunderground v.1.15,2013-10-31 03:10:00,
2013-10-30 22:15:00,67.9,62.5,29.99,SW,233,2.0,6.0,83,0.00,,,0.05,Wunderground v.1.15,2013-10-31 03:15:00,
2013-10-30 22:20:00,68.0,62.6,29.99,SSW,211,2.0,4.0,83,0.00,,,0.05,Wunderground v.1.15,2013-10-31 03:20:00,
2013-10-30 22:25:00,68.0,62.6,29.99,South,188,1.0,7.0,83,0.00,,,0.05,Wunderground v.1.15,2013-10-31 03:25:00,
2013-10-30 22:30:00,68.0,62.3,29.99,WSW,249,3.0,4.0,82,0.00,,,0.05,Wunderground v.1.15,2013-10-31 03:30:00,
2013-10-30 22:35:00,68.0,62.3,29.99,SSW,207,3.0,7.0,82,0.00,,,0.05,Wunderground v.1.15,2013-10-31 03:35:00,
2013-10-30 22:40:00,68.0,62.3,29.98,SW,236,3.0,4.0,82,0.00,,,0.05,Wunderground v.1.15,2013-10-31 03:40:00,
2013-10-30 22:45:00,68.0,61.9,29.98,SW,229,5.0,5.0,81,0.00,,,0.05,Wunderground v.1.15,2013-10-31 03:45:00,
2013-10-30 22:50:00,67.9,61.9,29.98,SSW,211,1.0,3.0,81,0.00,,,0.05,Wunderground v.1.15,2013-10-31 03:50:00,
2013-10-30 22:55:00,67.9,61.9,29.98,WSW,242,3.0,5.0,81,0.00,,,0.05,Wunderground v.1.15,2013-10-31 03:55:00,
2013-10-30 23:00:00,67.8,61.8,29.98,SSW,207,3.0,7.0,81,0.00,,,0.05,Wunderground v.1.15,2013-10-31 04:00:00,
2013-10-30 23:01:00,67.8,61.8,29.98,SW,215,0.0,7.0,81,0.00,,,0.05,Wunderground v.1.15,2013-10-31 04:01:00,
2013-10-30 23:06:00,67.8,61.8,29.99,SW,226,2.0,7.0,81,0.00,,,0.05,Wunderground v.1.15,2013-10-31 04:06:00,
2013-10-30 23:11:00,67.8,61.8,29.99,WSW,250,4.0,5.0,81,0.00,,,0.05,Wunderground v.1.15,2013-10-31 04:11:00,
2013-10-30 23:16:00,67.9,61.5,29.99,West,259,2.0,5.0,80,0.00,,,0.05,Wunderground v.1.15,2013-10-31 04:16:00,
2013-10-30 23:21:00,68.0,61.6,29.99,SW,226,3.0,4.0,80,0.00,,,0.05,Wunderground v.1.15,2013-10-31 04:21:00,
2013-10-30 23:26:00,68.1,61.3,29.98,SW,222,5.0,5.0,79,0.00,,,0.05,Wunderground v.1.15,2013-10-31 04:26:00,
2013-10-30 23:31:00,68.1,61.3,29.98,WSW,255,1.0,3.0,79,0.00,,,0.05,Wunderground v.1.15,2013-10-31 04:31:00,
2013-10-30 23:36:00,68.1,61.3,29.98,SSW,203,3.0,7.0,79,0.00,,,0.05,Wunderground v.1.15,2013-10-31 04:36:00,
2013-10-30 23:41:00,68.1,61.3,29.97,SW,224,1.0,5.0,79,0.00,,,0.05,Wunderground v.1.15,2013-10-31 04:41:00,
2013-10-30 23:46:00,68.0,61.2,29.97,SSE,151,0.0,8.0,79,0.00,,,0.05,Wunderground v.1.15,2013-10-31 04:46:00,
2013-10-30 23:51:00,68.0,61.2,29.97,SW,229,6.0,6.0,79,0.00,,,0.05,Wunderground v.1.15,2013-10-31 04:51:00,
2013-10-30 23:56:00,68.0,61.2,29.96,SW,236,4.0,8.0,79,0.00,,,0.05,Wunderground v.1.15,2013-10-31 04:56:00,